Wayne, NE

9:39 PM CST on January 18, 2017 (GMT -0600)
Wayne Municipal

Weather History for KLCG - April, 2013

Change the Weather History Date:

Friday, April 19, 2013

  Actual Average (KOFK) Record (KOFK)
Temperature  
Mean Temperature 34 °F -  
Max Temperature 42 °F 63 °F 90 °F (1987)
Min Temperature 26 °F 41 °F 13 °F (1907)
Degree Days  
Heating Degree Days 31    
Moisture  
Dew Point 22 °F    
Average Humidity 66    
Maximum Humidity 86    
Minimum Humidity 44    
Precipitation  
Precipitation 0.00 in - - ()
Sea Level Pressure  
Sea Level Pressure 29.95 in    
Wind  
Wind Speed 16 mph (NW)    
Max Wind Speed 22 mph    
Max Gust Speed 30 mph    
Visibility 10 miles    
Events      
Averages and records for this station are not official NWS values.
T = Trace of Precipitation, MM = Missing Value Source: NWS Daily Summary

Daily Weather History Graph

Daily Weather History Graph

Search for Another Location

Airport or City:

Trip Planner

Search our weather history database for the weather conditions in past years. The results will help you decide how hot, cold, wet, or windy it might be!

Date:

Astronomy

Apr. 19, 2013 Rise Set
Actual Time 6:40 AM CDT 8:14 PM CDT
Civil Twilight 6:10 AM CDT 8:43 PM CDT
Nautical Twilight 5:35 AM CDT 9:19 PM CDT
Astronomical Twilight 4:57 AM CDT 9:57 PM CDT
Moon 1:53 PM CDT 3:03 AM CDT
Length of Visible Light 14h 32m
Length of Day
13h 33m
First Quarter, 62% of the Moon is Illuminated
Apr 19
First Quarter
Apr 25
Full
May 2
Last Quarter
May 9
New
May 17
First Quarter

Hourly Weather History & Observations

Time (CDT) Temp. Windchill Dew Point Humidity Pressure Visibility Wind Dir Wind Speed Gust Speed Precip Events Conditions
12:15 AM 30.9 °F 19.1 °F 23.0 °F 72% 29.88 in 10.0 mi NW 18.4 mph 27.6 mph N/A   Clear
12:35 AM 30.6 °F 19.0 °F 23.0 °F 74% 29.88 in 10.0 mi NW 17.3 mph 26.5 mph N/A   Clear
12:55 AM 30.0 °F 17.5 °F 22.8 °F 75% 29.87 in 10.0 mi NW 19.6 mph 23.0 mph N/A   Clear
1:15 AM 29.8 °F 17.7 °F 22.3 °F 73% 29.86 in 10.0 mi NW 18.4 mph 25.3 mph N/A   Clear
1:35 AM 29.3 °F 17.7 °F 21.6 °F 73% 29.86 in 10.0 mi NW 16.1 mph 24.2 mph N/A   Clear
1:55 AM 28.9 °F 16.9 °F 21.2 °F 73% 29.86 in 10.0 mi NW 17.3 mph 25.3 mph N/A   Clear
2:15 AM 28.4 °F 16.6 °F 21.2 °F 74% 29.86 in 10.0 mi NW 16.1 mph 20.7 mph N/A   Clear
2:35 AM 28.2 °F 16.3 °F 21.2 °F 75% 29.86 in 10.0 mi NW 16.1 mph 23.0 mph N/A   Clear
2:55 AM 27.9 °F 15.9 °F 21.0 °F 75% 29.85 in 10.0 mi NW 16.1 mph 19.6 mph N/A   Clear
3:15 AM 27.5 °F 15.4 °F 20.7 °F 75% 29.85 in 10.0 mi NW 16.1 mph 21.9 mph N/A   Clear
3:35 AM 27.3 °F 15.6 °F 20.3 °F 75% 29.85 in 10.0 mi NW 15.0 mph 23.0 mph N/A   Clear
3:55 AM 26.6 °F 14.3 °F 19.8 °F 75% 29.85 in 10.0 mi WNW 16.1 mph 21.9 mph N/A   Clear
4:15 AM 26.4 °F 14.5 °F 19.4 °F 75% 29.85 in 10.0 mi WNW 15.0 mph - N/A   Clear
4:35 AM 26.4 °F 14.0 °F 19.4 °F 75% 29.85 in 10.0 mi WNW 16.1 mph 24.2 mph N/A   Clear
4:55 AM 26.2 °F 13.8 °F 19.0 °F 74% 29.85 in 10.0 mi WNW 16.1 mph 21.9 mph N/A   Clear
5:15 AM 26.2 °F 13.4 °F 18.5 °F 73% 29.86 in 10.0 mi WNW 17.3 mph 23.0 mph N/A   Clear
5:55 AM 26.1 °F 14.0 °F 18.5 °F 73% 29.86 in 10.0 mi WNW 15.0 mph - N/A   Clear
6:15 AM 26.2 °F 14.7 °F 18.5 °F 73% 29.88 in 10.0 mi NW 13.8 mph 20.7 mph N/A   Clear
6:35 AM 26.1 °F 13.6 °F 18.7 °F 74% 29.88 in 10.0 mi WNW 16.1 mph 21.9 mph N/A   Clear
6:55 AM 26.1 °F 13.6 °F 19.2 °F 75% 29.88 in 10.0 mi WNW 16.1 mph 21.9 mph N/A   Clear
7:15 AM 26.2 °F 13.4 °F 19.4 °F 75% 29.88 in 10.0 mi WNW 17.3 mph - N/A   Clear
7:35 AM 26.2 °F 13.0 °F 19.9 °F 77% 29.89 in 10.0 mi WNW 18.4 mph 21.9 mph N/A   Clear
7:55 AM 27.0 °F 14.3 °F 20.1 °F 75% 29.89 in 10.0 mi WNW 17.3 mph - N/A   Clear
8:15 AM 27.7 °F 15.6 °F 20.8 °F 75% 29.90 in 10.0 mi WNW 16.1 mph 21.9 mph N/A   Clear
8:35 AM 28.2 °F 14.8 °F 21.2 °F 75% 29.90 in 10.0 mi WNW 20.7 mph - N/A   Clear
8:55 AM 29.1 °F 18.4 °F 21.9 °F 74% 29.90 in 10.0 mi NW 13.8 mph 24.2 mph N/A   Clear
9:15 AM 30.4 °F 18.4 °F 21.7 °F 70% 29.90 in 10.0 mi WNW 18.4 mph 23.0 mph N/A   Clear
9:35 AM 31.1 °F 19.3 °F 21.6 °F 68% 29.91 in 10.0 mi NW 18.4 mph 23.0 mph N/A   Clear
9:55 AM 31.5 °F 20.5 °F 22.1 °F 68% 29.91 in 10.0 mi NW 16.1 mph 26.5 mph N/A   Clear
10:15 AM 32.0 °F 21.2 °F 21.7 °F 66% 29.91 in 10.0 mi NW 16.1 mph 24.2 mph N/A   Clear
10:35 AM 32.0 °F 20.8 °F 22.3 °F 67% 29.92 in 10.0 mi NW 17.3 mph 27.6 mph N/A   Clear
10:55 AM 32.5 °F 21.5 °F 23.2 °F 68% 29.92 in 10.0 mi NW 17.3 mph 25.3 mph N/A   Clear
11:15 AM 33.1 °F 20.9 °F 23.2 °F 67% 29.93 in 10.0 mi NW 21.9 mph 26.5 mph N/A   Clear
11:35 AM 34.2 °F 23.3 °F 23.7 °F 66% 29.93 in 10.0 mi NW 18.4 mph 25.3 mph N/A   Clear
11:55 AM 34.7 °F 24.0 °F 24.3 °F 66% 29.94 in 10.0 mi NW 18.4 mph 27.6 mph N/A   Clear
12:15 PM 35.6 °F 25.5 °F 24.8 °F 65% 29.94 in 10.0 mi NW 17.3 mph - N/A   Clear
12:35 PM 36.9 °F 26.8 °F 25.9 °F 64% 29.95 in 10.0 mi NW 18.4 mph 27.6 mph N/A   Clear
12:55 PM 37.6 °F 27.1 °F 25.0 °F 60% 29.95 in 10.0 mi NW 20.7 mph 28.8 mph N/A   Clear
1:15 PM 38.3 °F 28.1 °F 24.6 °F 58% 29.95 in 10.0 mi NW 20.7 mph 29.9 mph N/A   Clear
1:35 PM 39.2 °F 29.3 °F 26.2 °F 60% 29.96 in 10.0 mi NW 20.7 mph 27.6 mph N/A   Clear
1:55 PM 39.9 °F 30.5 °F 26.6 °F 59% 29.96 in 10.0 mi NW 19.6 mph 24.2 mph N/A   Clear
2:15 PM 40.1 °F 30.7 °F 25.3 °F 56% 29.97 in 10.0 mi NW 19.6 mph 26.5 mph N/A   Clear
2:35 PM 40.3 °F 31.3 °F 25.2 °F 55% 29.97 in 10.0 mi NNW 18.4 mph 26.5 mph N/A   Scattered Clouds
2:55 PM 41.0 °F 32.5 °F 25.3 °F 54% 29.98 in 10.0 mi NW 17.3 mph 25.3 mph N/A   Mostly Cloudy
3:15 PM 40.1 °F 31.0 °F 23.7 °F 52% 29.98 in 10.0 mi NNW 18.4 mph 25.3 mph N/A   Mostly Cloudy
3:35 PM 41.5 °F 32.6 °F 24.8 °F 51% 29.98 in 10.0 mi NW 19.6 mph 26.5 mph N/A   Scattered Clouds
3:55 PM 42.1 °F 33.3 °F 24.8 °F 50% 29.98 in 10.0 mi NNW 19.6 mph 26.5 mph N/A   Mostly Cloudy
4:15 PM 42.1 °F 33.1 °F 23.4 °F 48% 29.98 in 10.0 mi NW 20.7 mph 28.8 mph N/A   Mostly Cloudy
4:35 PM 41.0 °F 31.4 °F 22.3 °F 47% 29.99 in 10.0 mi NNW 21.9 mph 26.5 mph N/A   Scattered Clouds
4:55 PM 41.4 °F 33.0 °F 22.5 °F 47% 30.00 in 10.0 mi NW 17.3 mph 27.6 mph N/A   Scattered Clouds
5:15 PM 41.9 °F 33.4 °F 22.6 °F 46% 30.00 in 10.0 mi NNW 18.4 mph 25.3 mph N/A   Scattered Clouds
5:35 PM 41.4 °F 32.7 °F 20.7 °F 44% 30.00 in 10.0 mi NW 18.4 mph 27.6 mph N/A   Scattered Clouds
5:55 PM 41.0 °F 31.4 °F 21.2 °F 45% 30.00 in 10.0 mi NNW 21.9 mph 27.6 mph N/A   Scattered Clouds
6:15 PM 41.0 °F 32.5 °F 21.2 °F 45% 30.01 in 10.0 mi NNW 17.3 mph 24.2 mph N/A   Clear
6:35 PM 40.5 °F 31.8 °F 21.2 °F 46% 30.02 in 10.0 mi NNW 17.3 mph 23.0 mph N/A   Clear
6:55 PM 40.1 °F 32.0 °F 21.6 °F 48% 30.02 in 10.0 mi NNW 15.0 mph 19.6 mph N/A   Unknown
7:15 PM 39.4 °F 31.4 °F 22.1 °F 50% 30.03 in 10.0 mi NNW 13.8 mph - N/A   Clear
7:35 PM 38.7 °F 30.5 °F 21.4 °F 50% 30.03 in 10.0 mi NNW 13.8 mph - N/A   Clear
7:55 PM 37.2 °F 31.2 °F 23.9 °F 59% 30.04 in 10.0 mi NNW 8.1 mph - N/A   Clear
8:15 PM 35.6 °F 29.2 °F 24.3 °F 63% 30.05 in 10.0 mi NNW 8.1 mph - N/A   Clear
8:35 PM 34.7 °F 28.1 °F 23.9 °F 65% 30.05 in 10.0 mi NNW 8.1 mph - N/A   Clear
8:55 PM 33.8 °F 27.0 °F 23.7 °F 67% 30.06 in 10.0 mi NNW 8.1 mph - N/A   Clear
9:15 PM 33.8 °F 26.4 °F 23.5 °F 66% 30.07 in 10.0 mi NNW 9.2 mph - N/A   Clear
9:35 PM 32.9 °F 27.5 °F 23.9 °F 69% 30.08 in 10.0 mi NNW 5.8 mph - N/A   Clear
9:55 PM 32.9 °F 28.5 °F 23.5 °F 68% 30.08 in 10.0 mi NW 4.6 mph - N/A   Clear
10:15 PM 31.8 °F 28.5 °F 23.9 °F 73% 30.09 in 10.0 mi NW 3.5 mph - N/A   Clear
10:35 PM 31.1 °F - 24.6 °F 77% 30.09 in 10.0 mi Calm Calm - N/A   Clear
10:55 PM 30.9 °F 27.5 °F 25.2 °F 79% 30.09 in 10.0 mi NW 3.5 mph - N/A   Clear
11:15 PM 30.6 °F 27.1 °F 24.8 °F 79% 30.09 in 10.0 mi NNW 3.5 mph - N/A   Clear
11:35 PM 29.7 °F 26.1 °F 25.0 °F 83% 30.09 in 10.0 mi WNW 3.5 mph - N/A   Clear
11:55 PM 29.3 °F - 25.5 °F 86% 30.10 in 10.0 mi Calm Calm - N/A   Clear